User: anonymous   Login
Location: Unspecified
(50.0959°N, 14.3921°E)
Time: 03:17:10
(UTC+02:00)
Language:

WISE - Orbit

View from above orbital plane
View from above orbital plane
View from above satellite
View from above satellite

Ground track
Ground track

The orbit data is extracted from the following two-line orbital elements,

1 36119U 09071A   19196.64400561 +.00000515 +00000-0 +20525-4 0  9998
2 36119 097.3698 231.5841 0003891 124.2275 235.9335 15.29650943532152
Epoch (UTC): 15 July 2019 15:27:22
Eccentricity: 0.0003891
inclination: 97.3698°
perigee height: 474 km
apogee height: 479 km
right ascension of ascending node: 231.5841°
argument of perigee: 124.2275°
revolutions per day: 15.29650943
mean anomaly at epoch: 235.9335°
orbit number at epoch: 53215

The dashed part of the orbit path shows where the satellite is in the earth's shadow,  

DLR